KLM621 EHAM-KATL

Flight info

Callsign KLM621
Flight time 7h 56m
Altitude 36000
Route BERGI L602 NALAX L46 GETNO DCT NELBO DCT KUGUR DCT SUNOT/M085F370 DCT 58N020W 59N030W 59N040W 57N050W DCT HOIST/N0489F380 DCT YYR DCT YZV DCT YBC Q910 GADAL DCT SYR/N0486F400 J59 PSB Q71 GEFFS DCT HVQ DCT HLRRY ONDRE1
Aircraft B78X/H-SDE1E2E3FGHIJ2J3J4J5M1RWXY/LB1D1

Departure

Time 2026-04-11 08:14
Airport Amsterdam Airport Schiphol (EHAM)

Arrival

Time 2026-04-11 16:10
Airport Hartsfield Jackson Atlanta International Airport (KATL)
Time Latitude Longitude Altitude Speed Heading
2026-04-11 07:41 52.31208 4.76555 5 ft 0 kts 124°
2026-04-11 07:59 52.31224 4.76518 6 ft 5 kts 128°
2026-04-11 07:59 52.31241 4.76487 6 ft 2 kts 152°
2026-04-11 07:59 52.31255 4.76478 6 ft 2 kts 181°
2026-04-11 07:59 52.31279 4.76484 5 ft 4 kts 194°
2026-04-11 08:00 52.31306 4.76497 5 ft 4 kts 205°
2026-04-11 08:00 52.31332 4.76519 5 ft 5 kts 212°
2026-04-11 08:00 52.31356 4.76541 6 ft 1 kts 229°
2026-04-11 08:00 52.31347 4.76516 7 ft 3 kts 245°
2026-04-11 08:01 52.31344 4.76486 6 ft 3 kts 265°
2026-04-11 08:01 52.31346 4.76469 4 ft 2 kts 283°
2026-04-11 08:01 52.31353 4.76447 4 ft 1 kts 303°
2026-04-11 08:01 52.31360 4.76436 4 ft 1 kts 317°
2026-04-11 08:02 52.31368 4.76428 4 ft 0 kts 327°
2026-04-11 08:04 52.31376 4.76421 24 ft 5 kts 333°
2026-04-11 08:05 52.31405 4.76406 5 ft 10 kts 341°
2026-04-11 08:05 52.31497 4.76345 5 ft 16 kts 325°
2026-04-11 08:05 52.31535 4.76194 5 ft 13 kts 271°
2026-04-11 08:05 52.31532 4.76044 5 ft 13 kts 266°
2026-04-11 08:06 52.31527 4.75891 5 ft 15 kts 265°
2026-04-11 08:06 52.31518 4.75674 5 ft 20 kts 262°
2026-04-11 08:06 52.31511 4.75459 5 ft 19 kts 268°
2026-04-11 08:06 52.31505 4.75242 4 ft 22 kts 267°
2026-04-11 08:07 52.31496 4.74997 5 ft 22 kts 266°
2026-04-11 08:07 52.31489 4.74761 5 ft 20 kts 268°
2026-04-11 08:07 52.31484 4.74622 5 ft 20 kts 265°
2026-04-11 08:08 52.31541 4.74301 5 ft 14 kts 353°
2026-04-11 08:08 52.31643 4.74308 5 ft 17 kts
2026-04-11 08:08 52.31788 4.74321 5 ft 21 kts
2026-04-11 08:08 52.31933 4.74337 5 ft 21 kts
2026-04-11 08:09 52.32075 4.74353 5 ft 20 kts
2026-04-11 08:09 52.32209 4.74359 5 ft 19 kts
2026-04-11 08:09 52.32338 4.74372 5 ft 18 kts
2026-04-11 08:09 52.32461 4.74383 5 ft 18 kts
2026-04-11 08:10 52.32583 4.74394 5 ft 17 kts
2026-04-11 08:10 52.32701 4.74405 5 ft 17 kts
2026-04-11 08:10 52.32816 4.74416 5 ft 16 kts
2026-04-11 08:10 52.32929 4.74427 5 ft 16 kts
2026-04-11 08:11 52.33038 4.74432 5 ft 15 kts 355°
2026-04-11 08:11 52.33087 4.74340 5 ft 10 kts 284°
2026-04-11 08:11 52.33093 4.74234 4 ft 9 kts 276°
2026-04-11 08:11 52.33098 4.74120 4 ft 14 kts 273°
2026-04-11 08:12 52.33059 4.74003 4 ft 10 kts 201°
2026-04-11 08:12 52.33024 4.73997 4 ft 0 kts 184°
2026-04-11 08:13 52.33023 4.73997 4 ft 0 kts 184°
2026-04-11 08:13 52.32947 4.73989 3 ft 32 kts 183°
2026-04-11 08:13 52.32495 4.73948 4 ft 97 kts 183°
2026-04-11 08:13 52.31615 4.73866 4 ft 155 kts 183°
2026-04-11 08:14 52.30435 4.73686 429 ft 175 kts 182°
2026-04-11 08:14 52.29202 4.73513 1385 ft 179 kts 180°
2026-04-11 08:14 52.27989 4.73251 2464 ft 179 kts 191°
2026-04-11 08:14 52.27021 4.71774 3143 ft 207 kts 234°
2026-04-11 08:15 52.26248 4.69689 3567 ft 233 kts 230°
2026-04-11 08:15 52.25696 4.68440 3723 ft 239 kts 230°
2026-04-11 08:15 52.24761 4.66175 4243 ft 252 kts 233°
2026-04-11 08:16 52.24030 4.63510 5090 ft 262 kts 249°
2026-04-11 08:16 52.23487 4.60684 6104 ft 261 kts 249°
2026-04-11 08:16 52.23358 4.57690 7041 ft 271 kts 273°
2026-04-11 08:16 52.24012 4.54757 7933 ft 282 kts 297°
2026-04-11 08:17 52.25404 4.52442 8815 ft 294 kts 321°
2026-04-11 08:17 52.27153 4.50651 9660 ft 298 kts 324°
2026-04-11 08:17 52.28946 4.48910 10421 ft 301 kts 324°
2026-04-11 08:17 52.30751 4.47138 11189 ft 303 kts 323°
2026-04-11 08:18 52.32555 4.45328 11930 ft 306 kts 323°
2026-04-11 08:18 52.34379 4.43497 12671 ft 308 kts 323°
2026-04-11 08:18 52.36394 4.42064 13310 ft 329 kts 345°
2026-04-11 08:18 52.38732 4.41553 13745 ft 350 kts 350°
2026-04-11 08:19 52.40318 4.41317 13974 ft 364 kts 352°
2026-04-11 08:19 52.42502 4.41039 14245 ft 381 kts 352°
2026-04-11 08:19 52.45170 4.40652 14926 ft 388 kts 351°
2026-04-11 08:19 52.47877 4.40197 15682 ft 394 kts 351°
2026-04-11 08:20 52.50624 4.39743 16399 ft 399 kts 352°
2026-04-11 08:20 52.53406 4.39311 17151 ft 404 kts 352°
2026-04-11 08:20 52.56223 4.38875 17906 ft 409 kts 352°
2026-04-11 08:20 52.59069 4.38419 18589 ft 414 kts 352°
2026-04-11 08:21 52.61910 4.37962 19242 ft 418 kts 352°
2026-04-11 08:21 52.64820 4.37498 19898 ft 422 kts 352°
2026-04-11 08:21 52.67735 4.37036 20538 ft 426 kts 351°
2026-04-11 08:21 52.70654 4.36211 21170 ft 424 kts 339°
2026-04-11 08:22 52.73370 4.34289 21779 ft 421 kts 324°
2026-04-11 08:22 52.75672 4.31485 22381 ft 417 kts 311°
2026-04-11 08:22 52.77521 4.27923 22980 ft 412 kts 298°
2026-04-11 08:22 52.78970 4.23857 23531 ft 412 kts 295°
2026-04-11 08:23 52.80382 4.19729 24062 ft 414 kts 294°
2026-04-11 08:23 52.81789 4.15532 24576 ft 416 kts 293°
2026-04-11 08:23 52.83189 4.11364 25113 ft 418 kts 293°
2026-04-11 08:23 52.84616 4.07147 25636 ft 419 kts 293°
2026-04-11 08:24 52.86040 4.02931 26184 ft 420 kts 292°
2026-04-11 08:24 52.87465 3.98685 26707 ft 421 kts 292°
2026-04-11 08:24 52.88407 3.95869 27072 ft 422 kts 292°
2026-04-11 08:24 52.89830 3.91622 27596 ft 423 kts 292°
2026-04-11 08:25 52.91263 3.87342 28092 ft 424 kts 291°
2026-04-11 08:25 52.93155 3.81676 28748 ft 426 kts 291°
2026-04-11 08:25 52.94593 3.77356 29235 ft 428 kts 291°
2026-04-11 08:25 52.95559 3.74452 29543 ft 429 kts 291°
2026-04-11 08:26 52.96986 3.70158 29987 ft 430 kts 290°
2026-04-11 08:26 52.98434 3.65792 30355 ft 432 kts 290°
2026-04-11 08:26 52.99877 3.61431 30737 ft 433 kts 290°
2026-04-11 08:26 53.01334 3.57021 31103 ft 435 kts 290°
2026-04-11 08:27 53.02788 3.52612 31467 ft 436 kts 290°
2026-04-11 08:27 53.04251 3.48166 31830 ft 438 kts 290°
2026-04-11 08:27 53.05712 3.43720 32184 ft 439 kts 290°
2026-04-11 08:27 53.07180 3.39242 32514 ft 441 kts 289°
2026-04-11 08:28 53.08650 3.34749 32866 ft 442 kts 288°
2026-04-11 08:28 53.09891 3.30134 33199 ft 433 kts 281°
2026-04-11 08:28 53.10737 3.25437 33524 ft 426 kts 274°
2026-04-11 08:28 53.11378 3.20620 33876 ft 426 kts 275°
2026-04-11 08:29 53.12027 3.15820 34296 ft 424 kts 274°
2026-04-11 08:29 53.12663 3.11036 34708 ft 422 kts 274°
2026-04-11 08:29 53.13285 3.06281 35093 ft 420 kts 274°
2026-04-11 08:29 53.13909 3.01524 35481 ft 418 kts 274°
2026-04-11 08:30 53.14531 2.96793 35772 ft 419 kts 274°
2026-04-11 08:30 53.15153 2.92022 35779 ft 424 kts 274°
2026-04-11 08:30 53.16400 2.82462 35775 ft 421 kts 274°
2026-04-11 08:31 53.17634 2.72879 35766 ft 423 kts 273°
2026-04-11 08:31 53.18858 2.63357 35758 ft 424 kts 273°
2026-04-11 08:32 53.20084 2.53726 35756 ft 425 kts 273°
2026-04-11 08:32 53.21306 2.44079 35756 ft 426 kts 273°
2026-04-11 08:33 53.22527 2.34387 35753 ft 426 kts 272°
2026-04-11 08:33 53.23739 2.24688 35752 ft 427 kts 272°
2026-04-11 08:34 53.24946 2.14969 35753 ft 428 kts 272°
2026-04-11 08:34 53.26149 2.05210 35743 ft 428 kts 272°
2026-04-11 08:35 53.27344 1.95444 35742 ft 429 kts 272°
2026-04-11 08:35 53.28523 1.85733 35735 ft 430 kts 272°
2026-04-11 08:36 53.29705 1.75933 35731 ft 430 kts 271°
2026-04-11 08:36 53.30880 1.66117 35722 ft 431 kts 271°
2026-04-11 08:37 53.32050 1.56270 35721 ft 431 kts 271°
2026-04-11 08:37 53.33353 1.46452 35712 ft 434 kts 274°
2026-04-11 08:38 53.34764 1.36690 35711 ft 434 kts 273°
2026-04-11 08:38 53.36189 1.26857 35712 ft 435 kts 273°
2026-04-11 08:39 53.37603 1.17010 35702 ft 435 kts 273°
2026-04-11 08:39 53.39010 1.07157 35696 ft 435 kts 273°
2026-04-11 08:40 53.40409 0.97292 35687 ft 436 kts 272°
2026-04-11 08:40 53.41804 0.87390 35685 ft 437 kts 272°
2026-04-11 08:41 53.43197 0.77442 35685 ft 438 kts 272°
2026-04-11 08:41 53.44573 0.67548 35678 ft 439 kts 272°
2026-04-11 08:42 53.45956 0.57547 35679 ft 440 kts 272°
2026-04-11 08:43 53.48014 0.42525 35673 ft 441 kts 271°
2026-04-11 08:43 53.49378 0.32481 35659 ft 442 kts 271°
2026-04-11 08:44 53.50734 0.22417 35663 ft 442 kts 271°
2026-04-11 08:44 53.52086 0.12325 35659 ft 442 kts 271°
2026-04-11 08:45 53.53429 0.02228 35652 ft 443 kts 271°
2026-04-11 08:45 53.54766 -0.07891 35650 ft 444 kts 271°
2026-04-11 08:46 53.56097 -0.18034 35646 ft 444 kts 271°
2026-04-11 08:46 53.57410 -0.28117 35643 ft 445 kts 270°
2026-04-11 08:47 53.58726 -0.38282 35642 ft 445 kts 270°
2026-04-11 08:47 53.60038 -0.48500 35653 ft 446 kts 270°
2026-04-11 08:48 53.61341 -0.58711 35651 ft 446 kts 270°
2026-04-11 08:48 53.62129 -0.64931 35649 ft 447 kts 270°
2026-04-11 08:49 53.63423 -0.75192 35658 ft 448 kts 270°
2026-04-11 08:49 53.64709 -0.85479 35651 ft 449 kts 270°
2026-04-11 08:50 53.65984 -0.95747 35659 ft 450 kts 270°
2026-04-11 08:50 53.67257 -1.06089 35656 ft 450 kts 270°
2026-04-11 08:51 53.68524 -1.16454 35650 ft 451 kts 269°
2026-04-11 08:51 53.69783 -1.26843 35647 ft 452 kts 269°
2026-04-11 08:52 53.71661 -1.42478 35642 ft 454 kts 269°
2026-04-11 08:52 53.72900 -1.52943 35645 ft 455 kts 269°
2026-04-11 08:53 53.74113 -1.63428 35648 ft 454 kts 268°
2026-04-11 08:53 53.75232 -1.73949 35645 ft 455 kts 269°
2026-04-11 08:54 53.76382 -1.84415 35645 ft 456 kts 269°
2026-04-11 08:54 53.77509 -1.94975 35643 ft 457 kts 269°
2026-04-11 08:55 53.78642 -2.05581 35637 ft 458 kts 269°
2026-04-11 08:55 53.79756 -2.16143 35634 ft 458 kts 269°
2026-04-11 08:56 53.80869 -2.26784 35628 ft 459 kts 269°
2026-04-11 08:56 53.81974 -2.37434 35624 ft 460 kts 269°
2026-04-11 08:57 53.83069 -2.48094 35628 ft 460 kts 269°
2026-04-11 08:57 53.84155 -2.58778 35625 ft 461 kts 268°
2026-04-11 08:58 53.85237 -2.69490 35633 ft 461 kts 268°
2026-04-11 08:58 53.86307 -2.80205 35642 ft 462 kts 268°
2026-04-11 08:59 53.87370 -2.90939 35640 ft 462 kts 268°
2026-04-11 08:59 53.88424 -3.01696 35617 ft 463 kts 268°
2026-04-11 09:00 53.89471 -3.12473 35617 ft 463 kts 268°
2026-04-11 09:00 53.90501 -3.23194 35617 ft 463 kts 268°
2026-04-11 09:01 53.91529 -3.33986 35612 ft 464 kts 268°
2026-04-11 09:01 53.92588 -3.44824 35609 ft 469 kts 273°
2026-04-11 09:02 53.93512 -3.50205 35608 ft 482 kts 280°
2026-04-11 09:02 53.94889 -3.55476 35606 ft 493 kts 288°
2026-04-11 09:02 53.98141 -3.65682 35594 ft 494 kts 288°
2026-04-11 09:03 54.01431 -3.75967 35584 ft 495 kts 288°
2026-04-11 09:03 54.04705 -3.86287 35573 ft 496 kts 288°
2026-04-11 09:04 54.07980 -3.96635 35579 ft 497 kts 288°
2026-04-11 09:04 54.11254 -4.07034 35568 ft 497 kts 288°
2026-04-11 09:05 54.14515 -4.17432 35557 ft 498 kts 288°
2026-04-11 09:05 54.17776 -4.27878 35555 ft 498 kts 288°
2026-04-11 09:06 54.21013 -4.38292 35550 ft 499 kts 288°
2026-04-11 09:06 54.24265 -4.48799 35554 ft 500 kts 288°
2026-04-11 09:07 54.27502 -4.59302 35534 ft 500 kts 288°
2026-04-11 09:07 54.30734 -4.69837 35534 ft 500 kts 288°
2026-04-11 09:08 54.33964 -4.80414 35520 ft 500 kts 288°
2026-04-11 09:08 54.36638 -4.89201 35508 ft 500 kts 288°
2026-04-11 09:09 54.39850 -4.99803 35499 ft 500 kts 288°
2026-04-11 09:09 54.43034 -5.10361 35498 ft 501 kts 288°
2026-04-11 09:10 54.46231 -5.21007 35489 ft 501 kts 289°
2026-04-11 09:10 54.49349 -5.31699 35484 ft 494 kts 282°
2026-04-11 09:11 54.51972 -5.42687 35469 ft 497 kts 284°
2026-04-11 09:11 54.54599 -5.53689 35454 ft 496 kts 284°
2026-04-11 09:12 54.57204 -5.64709 35454 ft 496 kts 284°
2026-04-11 09:12 54.59806 -5.75727 35454 ft 495 kts 284°
2026-04-11 09:13 54.62372 -5.86684 35442 ft 496 kts 284°
2026-04-11 09:13 54.64948 -5.97714 35446 ft 495 kts 284°
2026-04-11 09:14 54.67512 -6.08769 35400 ft 495 kts 284°
2026-04-11 09:14 54.70066 -6.19825 35393 ft 495 kts 284°
2026-04-11 09:15 54.72613 -6.30915 35396 ft 495 kts 284°
2026-04-11 09:15 54.75144 -6.41990 35397 ft 495 kts 284°
2026-04-11 09:16 54.77668 -6.53094 35390 ft 495 kts 284°
2026-04-11 09:16 54.80166 -6.64140 35381 ft 495 kts 284°
2026-04-11 09:17 54.82669 -6.75268 35345 ft 495 kts 284°
2026-04-11 09:17 54.85162 -6.86412 35326 ft 495 kts 284°
2026-04-11 09:18 54.87643 -6.97558 35308 ft 495 kts 284°
2026-04-11 09:18 54.90116 -7.08730 35293 ft 495 kts 284°
2026-04-11 09:19 54.92580 -7.19921 35283 ft 495 kts 284°
2026-04-11 09:19 54.95032 -7.31120 35285 ft 495 kts 284°
2026-04-11 09:20 54.97455 -7.42246 35290 ft 495 kts 284°
2026-04-11 09:20 54.99885 -7.53462 35273 ft 495 kts 284°
2026-04-11 09:21 55.02304 -7.64690 35266 ft 495 kts 284°
2026-04-11 09:21 55.04714 -7.75936 35239 ft 495 kts 284°
2026-04-11 09:22 55.07111 -7.87187 35220 ft 494 kts 284°
2026-04-11 09:22 55.09498 -7.98450 35213 ft 494 kts 284°
2026-04-11 09:23 55.11871 -8.09709 35206 ft 494 kts 284°
2026-04-11 09:23 55.14235 -8.20991 35201 ft 494 kts 284°
2026-04-11 09:24 55.16577 -8.32230 35204 ft 494 kts 284°
2026-04-11 09:24 55.18921 -8.43539 35194 ft 494 kts 284°
2026-04-11 09:25 55.21249 -8.54844 35184 ft 493 kts 284°
2026-04-11 09:25 55.23570 -8.66168 35184 ft 493 kts 284°
2026-04-11 09:26 55.25874 -8.77472 35168 ft 493 kts 284°
2026-04-11 09:26 55.28155 -8.88729 35165 ft 493 kts 283°
2026-04-11 09:27 55.30435 -9.00056 35154 ft 493 kts 283°
2026-04-11 09:27 55.32708 -9.11412 35140 ft 493 kts 283°
2026-04-11 09:28 55.34973 -9.22766 35132 ft 493 kts 283°
2026-04-11 09:28 55.37220 -9.34152 35116 ft 493 kts 283°
2026-04-11 09:29 55.39472 -9.45545 35102 ft 492 kts 283°
2026-04-11 09:29 55.41680 -9.56880 35092 ft 492 kts 283°
2026-04-11 09:30 55.43902 -9.68279 35081 ft 492 kts 283°
2026-04-11 09:30 55.46104 -9.79693 35050 ft 492 kts 283°
2026-04-11 09:31 55.48309 -9.91126 35044 ft 492 kts 283°
2026-04-11 09:31 55.50814 -10.02388 35042 ft 500 kts 295°
2026-04-11 09:32 55.54319 -10.13026 35020 ft 500 kts 295°
2026-04-11 09:32 55.57815 -10.23586 35009 ft 500 kts 294°
2026-04-11 09:33 55.61301 -10.34215 35001 ft 500 kts 295°
2026-04-11 09:33 55.64791 -10.44866 34992 ft 499 kts 295°
2026-04-11 09:34 55.68256 -10.55510 34973 ft 499 kts 295°
2026-04-11 09:34 55.71730 -10.66188 34963 ft 499 kts 294°
2026-04-11 09:35 55.75175 -10.76878 34944 ft 499 kts 294°
2026-04-11 09:35 55.78621 -10.87582 34935 ft 499 kts 295°
2026-04-11 09:36 55.82060 -10.98325 34922 ft 499 kts 295°
2026-04-11 09:36 55.85489 -11.09094 34909 ft 499 kts 295°
2026-04-11 09:37 55.88883 -11.19800 34901 ft 500 kts 295°
2026-04-11 09:37 55.92298 -11.30598 34884 ft 499 kts 295°
2026-04-11 09:38 55.95693 -11.41408 34868 ft 499 kts 294°
2026-04-11 09:38 55.99092 -11.52263 34857 ft 499 kts 295°
2026-04-11 09:39 56.02452 -11.63034 34845 ft 499 kts 294°
2026-04-11 09:39 56.05843 -11.73968 34833 ft 499 kts 295°
2026-04-11 09:40 56.09186 -11.84809 34819 ft 499 kts 295°
2026-04-11 09:40 56.12535 -11.95696 34809 ft 499 kts 295°
2026-04-11 09:41 56.15875 -12.06617 34800 ft 499 kts 295°
2026-04-11 09:41 56.19207 -12.17557 34778 ft 499 kts 295°
2026-04-11 09:42 56.22518 -12.28495 34774 ft 499 kts 295°
2026-04-11 09:43 56.27464 -12.44911 34759 ft 499 kts 295°
2026-04-11 09:43 56.30762 -12.55911 34744 ft 499 kts 295°
2026-04-11 09:44 56.34053 -12.66957 34734 ft 500 kts 295°
2026-04-11 09:44 56.37332 -12.78017 34701 ft 500 kts 295°
2026-04-11 09:45 56.40606 -12.89083 34695 ft 500 kts 295°
2026-04-11 09:45 56.43865 -13.00191 34688 ft 500 kts 295°
2026-04-11 09:46 56.47118 -13.11292 34673 ft 500 kts 295°
2026-04-11 09:46 56.50333 -13.22341 34669 ft 499 kts 295°
2026-04-11 09:47 56.53558 -13.33472 34659 ft 499 kts 295°
2026-04-11 09:47 56.56783 -13.44656 34647 ft 499 kts 295°
2026-04-11 09:48 56.59989 -13.55820 34637 ft 499 kts 295°
2026-04-11 09:48 56.63184 -13.67004 34624 ft 499 kts 295°
2026-04-11 09:49 56.66371 -13.78216 34618 ft 499 kts 295°
2026-04-11 09:49 56.69542 -13.89432 34613 ft 498 kts 295°
2026-04-11 09:50 56.72684 -14.00592 34608 ft 498 kts 295°
2026-04-11 09:50 56.75836 -14.11846 34605 ft 498 kts 295°
2026-04-11 09:51 56.78978 -14.23113 34610 ft 498 kts 295°
2026-04-11 09:51 56.82108 -14.34397 34618 ft 498 kts 295°
2026-04-11 09:52 56.85225 -14.45690 34630 ft 498 kts 295°
2026-04-11 09:52 56.88334 -14.57007 34638 ft 497 kts 295°
2026-04-11 09:53 56.91431 -14.68344 34652 ft 497 kts 295°
2026-04-11 09:53 56.94512 -14.79668 34666 ft 497 kts 295°
2026-04-11 09:54 56.97558 -14.90926 34681 ft 496 kts 295°
2026-04-11 09:54 57.00538 -15.02372 34710 ft 495 kts 290°
2026-04-11 09:55 57.02723 -15.12112 34709 ft 496 kts 292°
2026-04-11 09:55 57.05781 -15.25750 34720 ft 496 kts 291°
2026-04-11 09:56 57.08386 -15.37473 34738 ft 496 kts 291°
2026-04-11 09:56 57.10567 -15.47320 34748 ft 496 kts 291°
2026-04-11 09:57 57.13139 -15.59020 34757 ft 496 kts 291°
2026-04-11 09:57 57.15719 -15.70799 34770 ft 496 kts 291°
2026-04-11 09:58 57.18285 -15.82597 34785 ft 495 kts 291°
2026-04-11 09:58 57.20838 -15.94392 34798 ft 495 kts 291°
2026-04-11 09:59 57.23379 -16.06204 34812 ft 495 kts 291°
2026-04-11 09:59 57.25907 -16.18022 34826 ft 495 kts 291°
2026-04-11 10:00 57.28426 -16.29870 34841 ft 494 kts 291°
2026-04-11 10:00 57.30929 -16.41698 34853 ft 494 kts 291°
2026-04-11 10:01 57.33406 -16.53493 34867 ft 494 kts 291°
2026-04-11 10:01 57.35887 -16.65356 34881 ft 494 kts 291°
2026-04-11 10:02 57.38359 -16.77262 34893 ft 494 kts 291°
2026-04-11 10:02 57.40814 -16.89141 34905 ft 493 kts 291°
2026-04-11 10:03 57.43256 -17.01038 34919 ft 493 kts 291°
2026-04-11 10:03 57.45672 -17.12872 34928 ft 493 kts 291°
2026-04-11 10:04 57.48087 -17.24775 34941 ft 492 kts 291°
2026-04-11 10:04 57.50492 -17.36694 34958 ft 492 kts 290°
2026-04-11 10:05 57.52878 -17.48599 34972 ft 491 kts 291°
2026-04-11 10:05 57.55250 -17.60497 34982 ft 490 kts 290°
2026-04-11 10:06 57.57601 -17.72365 34999 ft 490 kts 290°
2026-04-11 10:06 57.59948 -17.84284 35008 ft 490 kts 290°
2026-04-11 10:07 57.62285 -17.96226 35019 ft 489 kts 290°
2026-04-11 10:07 57.64606 -18.08159 35059 ft 489 kts 290°
2026-04-11 10:07 57.65767 -18.14153 35338 ft 490 kts 290°
2026-04-11 10:08 57.66922 -18.20132 35749 ft 488 kts 290°
2026-04-11 10:08 57.68071 -18.26104 36041 ft 490 kts 290°
2026-04-11 10:08 57.69230 -18.32151 36054 ft 492 kts 290°
2026-04-11 10:09 57.71495 -18.44011 36068 ft 488 kts 290°
2026-04-11 10:09 57.73771 -18.56000 36074 ft 488 kts 289°
2026-04-11 10:10 57.76030 -18.67978 36085 ft 488 kts 289°
2026-04-11 10:10 57.78275 -18.79962 36095 ft 488 kts 289°
2026-04-11 10:11 57.80513 -18.91978 36107 ft 488 kts 289°
2026-04-11 10:11 57.82736 -19.03988 36114 ft 487 kts 289°
2026-04-11 10:12 57.84946 -19.16007 36126 ft 487 kts 289°
2026-04-11 10:12 57.87150 -19.28069 36135 ft 487 kts 289°
2026-04-11 10:13 57.89337 -19.40113 36145 ft 487 kts 289°
2026-04-11 10:13 57.91503 -19.52121 36159 ft 488 kts 289°
2026-04-11 10:14 57.93674 -19.64235 36174 ft 487 kts 288°
2026-04-11 10:14 57.95829 -19.76337 36185 ft 488 kts 288°
2026-04-11 10:15 57.97978 -19.88485 36198 ft 487 kts 288°
2026-04-11 10:15 58.00092 -20.00616 36215 ft 487 kts 284°
2026-04-11 10:16 58.01836 -20.12958 36236 ft 487 kts 285°
2026-04-11 10:16 58.03579 -20.25217 36251 ft 487 kts 284°
2026-04-11 10:17 58.05302 -20.37609 36266 ft 487 kts 285°
2026-04-11 10:17 58.07025 -20.49973 36282 ft 487 kts 284°
2026-04-11 10:18 58.08726 -20.62359 36295 ft 487 kts 284°
2026-04-11 10:18 58.10423 -20.74757 36312 ft 487 kts 284°
2026-04-11 10:19 58.12096 -20.87117 36322 ft 487 kts 284°
2026-04-11 10:19 58.13767 -20.99541 36338 ft 487 kts 284°
2026-04-11 10:20 58.15428 -21.12007 36356 ft 488 kts 284°
2026-04-11 10:20 58.17077 -21.24477 36373 ft 488 kts 284°
2026-04-11 10:21 58.18714 -21.36960 36386 ft 488 kts 283°
2026-04-11 10:21 58.20326 -21.49359 36400 ft 487 kts 283°
2026-04-11 10:22 58.21936 -21.61852 36412 ft 487 kts 283°
2026-04-11 10:22 58.23544 -21.74425 36426 ft 487 kts 283°
2026-04-11 10:23 58.25127 -21.86915 36442 ft 487 kts 283°
2026-04-11 10:23 58.26688 -21.99344 36453 ft 487 kts 283°
2026-04-11 10:24 58.28249 -22.11869 36467 ft 486 kts 283°
2026-04-11 10:24 58.29795 -22.24385 36479 ft 486 kts 282°
2026-04-11 10:25 58.31331 -22.36935 36491 ft 486 kts 282°
2026-04-11 10:25 58.32851 -22.49465 36505 ft 486 kts 282°
2026-04-11 10:26 58.34360 -22.62016 36517 ft 486 kts 282°
2026-04-11 10:26 58.35850 -22.74519 36524 ft 486 kts 282°
2026-04-11 10:27 58.37334 -22.87090 36540 ft 486 kts 282°
2026-04-11 10:27 58.38805 -22.99662 36549 ft 486 kts 282°
2026-04-11 10:28 58.40266 -23.12259 36559 ft 486 kts 281°
2026-04-11 10:28 58.41713 -23.24857 36568 ft 486 kts 281°
2026-04-11 10:29 58.43148 -23.37472 36580 ft 486 kts 281°
2026-04-11 10:29 58.44558 -23.49990 36587 ft 486 kts 281°
2026-04-11 10:30 58.45965 -23.62589 36598 ft 485 kts 281°
2026-04-11 10:30 58.47362 -23.75213 36607 ft 484 kts 281°
2026-04-11 10:31 58.48740 -23.87796 36612 ft 483 kts 281°
2026-04-11 10:31 58.50102 -24.00377 36621 ft 483 kts 280°
2026-04-11 10:32 58.51456 -24.12973 36631 ft 482 kts 280°
2026-04-11 10:32 58.52792 -24.25550 36635 ft 482 kts 280°
2026-04-11 10:33 58.54114 -24.38104 36651 ft 481 kts 280°
2026-04-11 10:33 58.55418 -24.50610 36654 ft 481 kts 280°
2026-04-11 10:34 58.56714 -24.63178 36664 ft 481 kts 280°
2026-04-11 10:34 58.57995 -24.75736 36664 ft 480 kts 279°
2026-04-11 10:35 58.59269 -24.88332 36673 ft 481 kts 279°
2026-04-11 10:35 58.60527 -25.00921 36681 ft 481 kts 279°
2026-04-11 10:36 58.61776 -25.13536 36693 ft 481 kts 279°
2026-04-11 10:36 58.63005 -25.26081 36694 ft 482 kts 279°
2026-04-11 10:37 58.64229 -25.38732 36703 ft 482 kts 279°
2026-04-11 10:37 58.65443 -25.51392 36708 ft 482 kts 279°
2026-04-11 10:38 58.66649 -25.64126 36715 ft 483 kts 279°
2026-04-11 10:38 58.68433 -25.83208 36727 ft 484 kts 279°
2026-04-11 10:39 58.69599 -25.95861 36733 ft 484 kts 278°
2026-04-11 10:39 58.70762 -26.08630 36741 ft 485 kts 278°
2026-04-11 10:40 58.71913 -26.21429 36740 ft 486 kts 278°
2026-04-11 10:40 58.73057 -26.34263 36737 ft 486 kts 278°
2026-04-11 10:41 58.74185 -26.47099 36753 ft 486 kts 278°
2026-04-11 10:41 58.75294 -26.59852 36764 ft 486 kts 278°
2026-04-11 10:42 58.76396 -26.72700 36767 ft 486 kts 278°
2026-04-11 10:42 58.77488 -26.85577 36771 ft 487 kts 278°
2026-04-11 10:43 58.78924 -27.02752 36777 ft 488 kts 278°
2026-04-11 10:44 58.79989 -27.15690 36776 ft 488 kts 278°
2026-04-11 10:44 58.81040 -27.28620 36784 ft 488 kts 278°
2026-04-11 10:45 58.82081 -27.41584 36792 ft 489 kts 278°
2026-04-11 10:45 58.83108 -27.54565 36789 ft 489 kts 277°
2026-04-11 10:46 58.84123 -27.67552 36794 ft 489 kts 277°
2026-04-11 10:46 58.85127 -27.80568 36797 ft 490 kts 277°
2026-04-11 10:47 58.85806 -27.89480 36802 ft 490 kts 277°
2026-04-11 10:47 58.86371 -27.96957 36798 ft 490 kts 277°
2026-04-11 10:48 58.87230 -28.08433 36797 ft 490 kts 277°
2026-04-11 10:48 58.87988 -28.18694 36802 ft 490 kts 277°
2026-04-11 10:49 58.88837 -28.30321 36807 ft 490 kts 277°
2026-04-11 10:49 58.89615 -28.41107 36815 ft 490 kts 277°
2026-04-11 10:50 58.90488 -28.53364 36818 ft 490 kts 277°
2026-04-11 10:50 58.91405 -28.66420 36819 ft 490 kts 277°
2026-04-11 10:51 58.92309 -28.79499 36822 ft 490 kts 277°
2026-04-11 10:51 58.93200 -28.92581 36822 ft 490 kts 277°
2026-04-11 10:52 58.94077 -29.05649 36823 ft 489 kts 277°
2026-04-11 10:52 58.94940 -29.18728 36825 ft 489 kts 276°
2026-04-11 10:53 58.95785 -29.31725 36831 ft 489 kts 276°
2026-04-11 10:53 58.96620 -29.44787 36829 ft 489 kts 276°
2026-04-11 10:54 58.97442 -29.57852 36835 ft 488 kts 276°
2026-04-11 10:54 58.98253 -29.70960 36833 ft 489 kts 276°
2026-04-11 10:55 58.99049 -29.84043 36835 ft 489 kts 276°
2026-04-11 10:55 58.99831 -29.97110 36839 ft 489 kts 276°
2026-04-11 10:56 59.00284 -30.08339 36832 ft 489 kts 274°
2026-04-11 10:56 59.00843 -30.21650 36838 ft 489 kts 274°
2026-04-11 10:57 59.01286 -30.34816 36842 ft 488 kts 274°
2026-04-11 10:57 59.01772 -30.47994 36840 ft 489 kts 274°
2026-04-11 10:58 59.02215 -30.61143 36839 ft 488 kts 274°
2026-04-11 10:58 59.02659 -30.74326 36823 ft 489 kts 274°
2026-04-11 10:59 59.03083 -30.87506 36834 ft 489 kts 274°
2026-04-11 10:59 59.03494 -31.00609 36826 ft 489 kts 274°
2026-04-11 11:00 59.03894 -31.13806 36826 ft 489 kts 274°
2026-04-11 11:00 59.04278 -31.26962 36822 ft 490 kts 274°
2026-04-11 11:01 59.04650 -31.40083 36817 ft 488 kts 273°
2026-04-11 11:01 59.05009 -31.53301 36807 ft 487 kts 273°
2026-04-11 11:02 59.05351 -31.66339 36809 ft 487 kts 273°
2026-04-11 11:02 59.05682 -31.79461 36825 ft 487 kts 273°
2026-04-11 11:03 59.05998 -31.92540 36822 ft 487 kts 273°
2026-04-11 11:03 59.06303 -32.05700 36812 ft 486 kts 274°
2026-04-11 11:04 59.06594 -32.18837 36808 ft 485 kts 273°
2026-04-11 11:04 59.06870 -32.31905 36804 ft 484 kts 273°
2026-04-11 11:05 59.07135 -32.45012 36806 ft 484 kts 273°
2026-04-11 11:05 59.07385 -32.58080 36804 ft 484 kts 273°
2026-04-11 11:06 59.07620 -32.71054 36805 ft 484 kts 273°
2026-04-11 11:06 59.07839 -32.83877 36803 ft 482 kts 273°
2026-04-11 11:07 59.08052 -32.97099 36803 ft 481 kts 274°
2026-04-11 11:07 59.08250 -33.10103 36809 ft 481 kts 273°
2026-04-11 11:08 59.08432 -33.23109 36807 ft 481 kts 273°
2026-04-11 11:08 59.08603 -33.36064 36813 ft 479 kts 273°
2026-04-11 11:09 59.08761 -33.49090 36810 ft 480 kts 273°
2026-04-11 11:09 59.08903 -33.62012 36814 ft 479 kts 273°
2026-04-11 11:10 59.09035 -33.74918 36812 ft 478 kts 273°
2026-04-11 11:10 59.09153 -33.87780 36502 ft 469 kts 272°
2026-04-11 11:10 59.09204 -33.94045 36624 ft 456 kts 272°
2026-04-11 11:11 59.09253 -34.00228 36755 ft 459 kts 272°
2026-04-11 11:11 59.09345 -34.12790 36819 ft 464 kts 272°
2026-04-11 11:12 59.09421 -34.25298 36825 ft 463 kts 272°
2026-04-11 11:12 59.09488 -34.37769 36820 ft 463 kts 272°
2026-04-11 11:13 59.09541 -34.50360 36845 ft 462 kts 272°
2026-04-11 11:13 59.09583 -34.62791 36843 ft 463 kts 271°
2026-04-11 11:14 59.09613 -34.75278 36843 ft 463 kts 271°
2026-04-11 11:14 59.09631 -34.87835 36846 ft 463 kts 271°
2026-04-11 11:15 59.09636 -35.00351 36844 ft 463 kts 271°
2026-04-11 11:15 59.09630 -35.12868 36846 ft 463 kts 271°
2026-04-11 11:16 59.09612 -35.25381 36844 ft 463 kts 271°
2026-04-11 11:16 59.09581 -35.37934 36846 ft 463 kts 271°
2026-04-11 11:17 59.09539 -35.50450 36849 ft 463 kts 271°
2026-04-11 11:17 59.09484 -35.62887 36851 ft 463 kts 270°
2026-04-11 11:18 59.09418 -35.75406 36850 ft 463 kts 270°
2026-04-11 11:18 59.09339 -35.87916 36856 ft 462 kts 270°
2026-04-11 11:19 59.09248 -36.00438 36853 ft 462 kts 270°
2026-04-11 11:19 59.09146 -36.12956 36857 ft 462 kts 270°
2026-04-11 11:20 59.09031 -36.25466 36860 ft 462 kts 270°
2026-04-11 11:20 59.08904 -36.37996 36862 ft 463 kts 270°
2026-04-11 11:21 59.08767 -36.50390 36867 ft 462 kts 270°
2026-04-11 11:21 59.08616 -36.62925 36869 ft 463 kts 269°
2026-04-11 11:22 59.08453 -36.75425 36867 ft 463 kts 269°
2026-04-11 11:22 59.08278 -36.87930 36870 ft 463 kts 269°
2026-04-11 11:23 59.08091 -37.00447 36877 ft 462 kts 269°
2026-04-11 11:23 59.07893 -37.12874 36875 ft 463 kts 269°
2026-04-11 11:24 59.07682 -37.25401 36873 ft 463 kts 269°
2026-04-11 11:24 59.07458 -37.37921 36873 ft 463 kts 269°
2026-04-11 11:25 59.07224 -37.50417 36880 ft 463 kts 269°
2026-04-11 11:25 59.06976 -37.62935 36878 ft 463 kts 268°
2026-04-11 11:26 59.06719 -37.75370 36879 ft 463 kts 268°
2026-04-11 11:26 59.06446 -37.87901 36881 ft 463 kts 268°
2026-04-11 11:27 59.06164 -38.00397 36885 ft 463 kts 268°
2026-04-11 11:27 59.05869 -38.12869 36881 ft 463 kts 268°
2026-04-11 11:28 59.05562 -38.25351 36887 ft 463 kts 268°
2026-04-11 11:28 59.05244 -38.37803 36885 ft 463 kts 268°
2026-04-11 11:29 59.04799 -38.54488 36884 ft 463 kts 268°
2026-04-11 11:29 59.04452 -38.66964 36891 ft 463 kts 267°
2026-04-11 11:30 59.04092 -38.79458 36894 ft 463 kts 267°
2026-04-11 11:30 59.03722 -38.91919 36890 ft 463 kts 267°
2026-04-11 11:31 59.03339 -39.04393 36893 ft 463 kts 267°
2026-04-11 11:31 59.02945 -39.16823 36896 ft 463 kts 267°
2026-04-11 11:32 59.02536 -39.29340 36897 ft 463 kts 267°
2026-04-11 11:32 59.02117 -39.41812 36895 ft 463 kts 267°
2026-04-11 11:33 59.01684 -39.54337 36900 ft 463 kts 266°
2026-04-11 11:33 59.01242 -39.66758 36899 ft 463 kts 266°
2026-04-11 11:34 59.00786 -39.79257 36900 ft 464 kts 266°
2026-04-11 11:34 59.00318 -39.91745 36897 ft 464 kts 266°
2026-04-11 11:35 58.99377 -40.04089 36915 ft 466 kts 254°
2026-04-11 11:35 58.97546 -40.16155 36913 ft 466 kts 255°
2026-04-11 11:36 58.95691 -40.28213 36917 ft 466 kts 255°
2026-04-11 11:36 58.93845 -40.40169 36918 ft 466 kts 255°
2026-04-11 11:37 58.91976 -40.52180 36912 ft 466 kts 255°
2026-04-11 11:37 58.90096 -40.64172 36912 ft 466 kts 255°
2026-04-11 11:38 58.88201 -40.76182 36913 ft 466 kts 254°
2026-04-11 11:38 58.86296 -40.88165 36913 ft 466 kts 254°
2026-04-11 11:39 58.84385 -41.00115 36915 ft 466 kts 254°
2026-04-11 11:39 58.82462 -41.12046 36911 ft 466 kts 254°
2026-04-11 11:40 58.80527 -41.23975 36910 ft 465 kts 254°
2026-04-11 11:40 58.78582 -41.35881 36912 ft 465 kts 254°
2026-04-11 11:41 58.76639 -41.47704 36911 ft 465 kts 254°
2026-04-11 11:41 58.74668 -41.59607 36910 ft 465 kts 254°
2026-04-11 11:42 58.72691 -41.71475 36906 ft 465 kts 253°
2026-04-11 11:42 58.70714 -41.83257 36907 ft 465 kts 253°
2026-04-11 11:43 58.68717 -41.95082 36911 ft 465 kts 253°
2026-04-11 11:43 58.66710 -42.06894 36914 ft 465 kts 253°
2026-04-11 11:44 58.64692 -42.18689 36915 ft 465 kts 253°
2026-04-11 11:44 58.62659 -42.30497 36907 ft 464 kts 253°
2026-04-11 11:45 58.60621 -42.42258 36913 ft 464 kts 253°
2026-04-11 11:45 58.58589 -42.53907 36910 ft 463 kts 253°
2026-04-11 11:46 58.56537 -42.65596 36912 ft 463 kts 253°
2026-04-11 11:46 58.54474 -42.77279 36914 ft 463 kts 253°
2026-04-11 11:47 58.52398 -42.88956 36915 ft 463 kts 253°
2026-04-11 11:47 58.50311 -43.00623 36912 ft 463 kts 252°
2026-04-11 11:48 58.48217 -43.12260 36919 ft 463 kts 252°
2026-04-11 11:48 58.46114 -43.23869 36916 ft 463 kts 252°
2026-04-11 11:49 58.43997 -43.35488 36917 ft 463 kts 252°
2026-04-11 11:49 58.41884 -43.47009 36914 ft 462 kts 252°
2026-04-11 11:50 58.39747 -43.58593 36914 ft 462 kts 252°
2026-04-11 11:50 58.37602 -43.70150 36917 ft 462 kts 252°
2026-04-11 11:51 58.35446 -43.81697 36918 ft 462 kts 252°
2026-04-11 11:51 58.33282 -43.93220 36917 ft 462 kts 252°
2026-04-11 11:52 58.31105 -44.04737 36913 ft 463 kts 252°
2026-04-11 11:52 58.28918 -44.16240 36917 ft 462 kts 252°
2026-04-11 11:53 58.26735 -44.27656 36916 ft 462 kts 252°
2026-04-11 11:53 58.24532 -44.39108 36917 ft 462 kts 251°
2026-04-11 11:54 58.22315 -44.50565 36929 ft 461 kts 251°
2026-04-11 11:54 58.20092 -44.61982 36924 ft 461 kts 251°
2026-04-11 11:55 58.17872 -44.73324 36917 ft 461 kts 251°
2026-04-11 11:55 58.15633 -44.84694 36923 ft 461 kts 251°
2026-04-11 11:56 58.13380 -44.96069 36915 ft 461 kts 251°
2026-04-11 11:56 58.11120 -45.07414 36913 ft 460 kts 251°
2026-04-11 11:57 58.08858 -45.18706 36911 ft 459 kts 251°
2026-04-11 11:57 58.06586 -45.29982 36908 ft 459 kts 251°
2026-04-11 11:58 58.04303 -45.41249 36908 ft 459 kts 251°
2026-04-11 11:58 58.02014 -45.52480 36911 ft 458 kts 251°
2026-04-11 11:59 57.99730 -45.63629 36909 ft 458 kts 251°
2026-04-11 11:59 57.97422 -45.74833 36910 ft 458 kts 250°
2026-04-11 12:00 57.95110 -45.85992 36911 ft 457 kts 250°
2026-04-11 12:00 57.92792 -45.97117 36905 ft 457 kts 250°
2026-04-11 12:01 57.90464 -46.08230 36910 ft 457 kts 250°
2026-04-11 12:01 57.88124 -46.19339 36912 ft 456 kts 250°
2026-04-11 12:02 57.85797 -46.30330 36903 ft 456 kts 250°
2026-04-11 12:02 57.83440 -46.41400 36899 ft 456 kts 250°
2026-04-11 12:03 57.81081 -46.52422 36903 ft 455 kts 250°
2026-04-11 12:03 57.78709 -46.63445 36906 ft 455 kts 250°
2026-04-11 12:04 57.76344 -46.74378 36905 ft 455 kts 250°
2026-04-11 12:04 57.73960 -46.85341 36903 ft 455 kts 250°
2026-04-11 12:05 57.71563 -46.96303 36903 ft 455 kts 250°
2026-04-11 12:05 57.69156 -47.07253 36905 ft 455 kts 250°
2026-04-11 12:06 57.66740 -47.18186 36907 ft 454 kts 249°
2026-04-11 12:06 57.64332 -47.29029 36908 ft 454 kts 249°
2026-04-11 12:07 57.61903 -47.39908 36903 ft 454 kts 249°
2026-04-11 12:07 57.59464 -47.50774 36905 ft 454 kts 249°
2026-04-11 12:08 57.57020 -47.61613 36906 ft 454 kts 249°
2026-04-11 12:08 57.54567 -47.72431 36907 ft 453 kts 249°
2026-04-11 12:09 57.52104 -47.83238 36908 ft 453 kts 249°
2026-04-11 12:09 57.49630 -47.94038 36909 ft 453 kts 249°
2026-04-11 12:10 57.47149 -48.04813 36913 ft 453 kts 249°
2026-04-11 12:10 57.44680 -48.15482 36911 ft 453 kts 249°
2026-04-11 12:11 57.42184 -48.26218 36912 ft 452 kts 249°
2026-04-11 12:11 57.39682 -48.36922 36914 ft 452 kts 248°
2026-04-11 12:12 57.37173 -48.47606 36914 ft 452 kts 248°
2026-04-11 12:12 57.34654 -48.58273 36918 ft 451 kts 248°
2026-04-11 12:13 57.32134 -48.68900 36918 ft 451 kts 248°
2026-04-11 12:13 57.29617 -48.79458 36913 ft 451 kts 248°
2026-04-11 12:14 57.27082 -48.90041 36917 ft 450 kts 248°
2026-04-11 12:14 57.24533 -49.00629 36919 ft 450 kts 248°
2026-04-11 12:15 57.22410 -49.09406 36918 ft 450 kts 248°
2026-04-11 12:15 57.19441 -49.21627 36919 ft 449 kts 248°
2026-04-11 12:16 57.17289 -49.30444 36917 ft 449 kts 248°
2026-04-11 12:16 57.14734 -49.40862 36939 ft 449 kts 248°
2026-04-11 12:17 57.12152 -49.51340 36941 ft 449 kts 247°
2026-04-11 12:17 57.09564 -49.61794 36941 ft 449 kts 247°
2026-04-11 12:18 57.06966 -49.72238 36938 ft 449 kts 247°
2026-04-11 12:19 57.03073 -49.87795 36937 ft 448 kts 247°
2026-04-11 12:19 57.00457 -49.98189 36940 ft 448 kts 247°
2026-04-11 12:20 56.97939 -50.08646 36944 ft 448 kts 248°
2026-04-11 12:20 56.95397 -50.19086 36946 ft 448 kts 248°
2026-04-11 12:21 56.92881 -50.29520 36948 ft 448 kts 248°
2026-04-11 12:21 56.90352 -50.39877 36950 ft 448 kts 248°
2026-04-11 12:22 56.87807 -50.50293 36948 ft 448 kts 247°
2026-04-11 12:22 56.85253 -50.60675 36950 ft 447 kts 247°
2026-04-11 12:23 56.82694 -50.71037 36951 ft 447 kts 247°
2026-04-11 12:23 56.80126 -50.81381 36948 ft 447 kts 247°
2026-04-11 12:24 56.77575 -50.91612 36945 ft 446 kts 247°
2026-04-11 12:24 56.74994 -51.01917 36947 ft 446 kts 247°
2026-04-11 12:25 56.72410 -51.12182 36947 ft 446 kts 247°
2026-04-11 12:25 56.69815 -51.22447 36955 ft 445 kts 246°
2026-04-11 12:26 56.67216 -51.32676 36953 ft 445 kts 246°
2026-04-11 12:26 56.64611 -51.42883 36957 ft 445 kts 246°
2026-04-11 12:27 56.62012 -51.53023 36956 ft 445 kts 246°
2026-04-11 12:27 56.59389 -51.63208 36962 ft 444 kts 246°
2026-04-11 12:28 56.56763 -51.73359 36962 ft 444 kts 246°
2026-04-11 12:28 56.54131 -51.83485 36962 ft 444 kts 246°
2026-04-11 12:29 56.51490 -51.93604 36965 ft 444 kts 246°
2026-04-11 12:29 56.48860 -52.03630 36970 ft 444 kts 246°
2026-04-11 12:30 56.46201 -52.13728 36970 ft 444 kts 246°
2026-04-11 12:30 56.43539 -52.23787 36971 ft 443 kts 246°
2026-04-11 12:31 56.40867 -52.33843 36982 ft 443 kts 246°
2026-04-11 12:31 56.38192 -52.43861 36983 ft 443 kts 245°
2026-04-11 12:32 56.35509 -52.53870 36980 ft 443 kts 245°
2026-04-11 12:32 56.32817 -52.63864 36992 ft 443 kts 245°
2026-04-11 12:33 56.30134 -52.73783 36987 ft 443 kts 245°
2026-04-11 12:33 56.27430 -52.83736 36989 ft 443 kts 245°
2026-04-11 12:34 56.24718 -52.93678 36993 ft 443 kts 245°
2026-04-11 12:34 56.21993 -53.03620 36997 ft 443 kts 245°
2026-04-11 12:35 56.19265 -53.13530 36996 ft 443 kts 245°
2026-04-11 12:35 56.16530 -53.23426 36998 ft 443 kts 245°
2026-04-11 12:36 56.13795 -53.33275 37003 ft 443 kts 245°
2026-04-11 12:36 56.11042 -53.43149 37005 ft 442 kts 245°
2026-04-11 12:37 56.08288 -53.52983 37005 ft 442 kts 245°
2026-04-11 12:37 56.05525 -53.62810 37011 ft 442 kts 245°
2026-04-11 12:38 56.02750 -53.72635 37010 ft 442 kts 245°
2026-04-11 12:38 55.99971 -53.82437 37014 ft 442 kts 244°
2026-04-11 12:39 55.97205 -53.92146 37021 ft 442 kts 244°
2026-04-11 12:39 55.94412 -54.01912 37025 ft 442 kts 244°
2026-04-11 12:40 55.91614 -54.11653 37030 ft 441 kts 244°
2026-04-11 12:40 55.88807 -54.21387 37029 ft 441 kts 244°
2026-04-11 12:41 55.85995 -54.31095 37035 ft 441 kts 244°
2026-04-11 12:41 55.83176 -54.40788 37039 ft 441 kts 244°
2026-04-11 12:42 55.80348 -54.50473 37045 ft 441 kts 244°
2026-04-11 12:42 55.77530 -54.60083 37048 ft 440 kts 244°
2026-04-11 12:43 55.73271 -54.74533 37060 ft 440 kts 244°
2026-04-11 12:43 55.70425 -54.84139 37062 ft 440 kts 244°
2026-04-11 12:44 55.67567 -54.93746 37067 ft 439 kts 243°
2026-04-11 12:44 55.64712 -55.03302 37074 ft 439 kts 243°
2026-04-11 12:45 55.61849 -55.12849 37079 ft 439 kts 243°
2026-04-11 12:45 55.58980 -55.22375 37087 ft 438 kts 243°
2026-04-11 12:46 55.56106 -55.31882 37090 ft 438 kts 243°
2026-04-11 12:46 55.53228 -55.41364 37099 ft 438 kts 243°
2026-04-11 12:47 55.50362 -55.50767 37103 ft 438 kts 243°
2026-04-11 12:47 55.47470 -55.60218 37107 ft 437 kts 243°
2026-04-11 12:48 55.44566 -55.69671 37117 ft 437 kts 243°
2026-04-11 12:48 55.41677 -55.79037 37118 ft 437 kts 243°
2026-04-11 12:49 55.38769 -55.88429 37127 ft 437 kts 243°
2026-04-11 12:49 55.35852 -55.97811 37131 ft 437 kts 243°
2026-04-11 12:50 55.32935 -56.07160 37138 ft 436 kts 242°
2026-04-11 12:50 55.30011 -56.16491 37146 ft 436 kts 242°
2026-04-11 12:51 55.27079 -56.25814 37155 ft 436 kts 242°
2026-04-11 12:51 55.24139 -56.35123 37164 ft 436 kts 242°
2026-04-11 12:52 55.21213 -56.44354 37172 ft 436 kts 242°
2026-04-11 12:52 55.18263 -56.53625 37173 ft 435 kts 242°
2026-04-11 12:53 55.15305 -56.62882 37181 ft 435 kts 242°
2026-04-11 12:53 55.12347 -56.72107 37188 ft 435 kts 242°
2026-04-11 12:54 55.09377 -56.81335 37196 ft 435 kts 242°
2026-04-11 12:54 55.06426 -56.90466 37202 ft 434 kts 242°
2026-04-11 12:55 55.03363 -56.99624 37219 ft 435 kts 236°
2026-04-11 12:55 54.99547 -57.07765 37216 ft 437 kts 232°
2026-04-11 12:56 54.95616 -57.15841 37222 ft 437 kts 232°
2026-04-11 12:56 54.91675 -57.23873 37223 ft 436 kts 232°
2026-04-11 12:57 54.87733 -57.31903 37228 ft 436 kts 232°
2026-04-11 12:57 54.83790 -57.39895 37226 ft 436 kts 232°
2026-04-11 12:58 54.79845 -57.47871 37231 ft 435 kts 232°
2026-04-11 12:58 54.75895 -57.55830 37229 ft 435 kts 232°
2026-04-11 12:59 54.71957 -57.63740 37632 ft 435 kts 231°
2026-04-11 12:59 54.69986 -57.67687 38088 ft 433 kts 231°
2026-04-11 12:59 54.68009 -57.71644 38237 ft 437 kts 231°
2026-04-11 13:00 54.64029 -57.79582 38241 ft 435 kts 231°
2026-04-11 13:00 54.60039 -57.87520 38248 ft 437 kts 231°
2026-04-11 13:01 54.54732 -57.98034 38257 ft 437 kts 231°
2026-04-11 13:02 54.50090 -58.07195 38256 ft 436 kts 231°
2026-04-11 13:02 54.46086 -58.15068 38257 ft 436 kts 231°
2026-04-11 13:03 54.42753 -58.21602 38266 ft 436 kts 231°
2026-04-11 13:03 54.38758 -58.29411 38261 ft 436 kts 231°
2026-04-11 13:04 54.34750 -58.37222 38274 ft 436 kts 231°
2026-04-11 13:04 54.30737 -58.45017 38278 ft 435 kts 231°
2026-04-11 13:05 54.26727 -58.52781 38275 ft 435 kts 231°
2026-04-11 13:05 54.22731 -58.60493 38273 ft 435 kts 231°
2026-04-11 13:06 54.18713 -58.68222 38274 ft 435 kts 230°
2026-04-11 13:06 54.14685 -58.75947 38274 ft 435 kts 230°
2026-04-11 13:07 54.10660 -58.83642 38273 ft 434 kts 230°
2026-04-11 13:07 54.06633 -58.91317 38275 ft 434 kts 230°
2026-04-11 13:08 54.02602 -58.98973 38278 ft 434 kts 230°
2026-04-11 13:08 53.98595 -59.06562 38271 ft 434 kts 230°
2026-04-11 13:09 53.94565 -59.14170 38277 ft 433 kts 230°
2026-04-11 13:09 53.90526 -59.21772 38278 ft 433 kts 230°
2026-04-11 13:10 53.86487 -59.29350 38279 ft 433 kts 230°
2026-04-11 13:10 53.82447 -59.36905 38275 ft 432 kts 230°
2026-04-11 13:11 53.78406 -59.44440 38274 ft 432 kts 230°
2026-04-11 13:11 53.74466 -59.52097 38287 ft 430 kts 235°
2026-04-11 13:12 53.70972 -59.60228 38293 ft 430 kts 233°
2026-04-11 13:12 53.67267 -59.68191 38290 ft 430 kts 234°
2026-04-11 13:13 53.63643 -59.76202 38290 ft 430 kts 233°
2026-04-11 13:13 53.59961 -59.84149 38289 ft 430 kts 233°
2026-04-11 13:14 53.56306 -59.92092 38288 ft 429 kts 233°
2026-04-11 13:14 53.52630 -60.00017 38284 ft 429 kts 233°
2026-04-11 13:15 53.48955 -60.07933 38281 ft 429 kts 233°
2026-04-11 13:15 53.45294 -60.15785 38276 ft 429 kts 233°
2026-04-11 13:16 53.41607 -60.23672 38276 ft 429 kts 233°
2026-04-11 13:16 53.37917 -60.31541 38274 ft 429 kts 233°
2026-04-11 13:17 53.34230 -60.39379 38272 ft 429 kts 233°
2026-04-11 13:17 53.30533 -60.47212 38272 ft 429 kts 233°
2026-04-11 13:18 53.26827 -60.55039 38272 ft 429 kts 232°
2026-04-11 13:18 53.23119 -60.62848 38272 ft 429 kts 232°
2026-04-11 13:19 53.19424 -60.70606 38273 ft 429 kts 232°
2026-04-11 13:19 53.15701 -60.78396 38269 ft 429 kts 232°
2026-04-11 13:20 53.11974 -60.86171 38269 ft 429 kts 232°
2026-04-11 13:20 53.08244 -60.93929 38265 ft 429 kts 232°
2026-04-11 13:21 53.04506 -61.01680 38263 ft 429 kts 232°
2026-04-11 13:21 53.00770 -61.09403 38263 ft 429 kts 232°
2026-04-11 13:22 52.97050 -61.17070 38261 ft 429 kts 232°
2026-04-11 13:22 52.93297 -61.24780 38265 ft 429 kts 232°
2026-04-11 13:23 52.89549 -61.32456 38264 ft 429 kts 232°
2026-04-11 13:23 52.85788 -61.40137 38263 ft 429 kts 232°
2026-04-11 13:24 52.82027 -61.47794 38259 ft 429 kts 231°
2026-04-11 13:24 52.78282 -61.55393 38256 ft 429 kts 231°
2026-04-11 13:25 52.74509 -61.63029 38254 ft 429 kts 231°
2026-04-11 13:25 52.70730 -61.70651 38254 ft 429 kts 231°
2026-04-11 13:26 52.66954 -61.78247 38254 ft 429 kts 231°
2026-04-11 13:26 52.63162 -61.85850 38251 ft 429 kts 231°
2026-04-11 13:27 52.59373 -61.93425 38251 ft 429 kts 231°
2026-04-11 13:27 52.55592 -62.00962 38252 ft 429 kts 231°
2026-04-11 13:28 52.51782 -62.08533 38251 ft 429 kts 231°
2026-04-11 13:28 52.47967 -62.16092 38246 ft 430 kts 231°
2026-04-11 13:29 52.44145 -62.23641 38248 ft 430 kts 231°
2026-04-11 13:29 52.40326 -62.31163 38244 ft 430 kts 231°
2026-04-11 13:30 52.36498 -62.38680 38244 ft 430 kts 231°
2026-04-11 13:30 52.34562 -62.42472 38238 ft 430 kts 231°
2026-04-11 13:31 52.30720 -62.49984 38241 ft 430 kts 230°
2026-04-11 13:31 52.26870 -62.57485 38239 ft 431 kts 230°
2026-04-11 13:32 52.23018 -62.64972 38238 ft 431 kts 230°
2026-04-11 13:32 52.19176 -62.72416 38236 ft 431 kts 230°
2026-04-11 13:33 52.15311 -62.79882 38232 ft 431 kts 230°
2026-04-11 13:33 52.11437 -62.87344 38229 ft 431 kts 230°
2026-04-11 13:34 52.07561 -62.94786 38227 ft 431 kts 230°
2026-04-11 13:34 52.03678 -63.02223 38224 ft 431 kts 230°
2026-04-11 13:35 51.99795 -63.09634 38220 ft 431 kts 230°
2026-04-11 13:35 51.95901 -63.17047 38216 ft 432 kts 230°
2026-04-11 13:36 51.92026 -63.24402 38213 ft 432 kts 230°
2026-04-11 13:36 51.88119 -63.31796 38209 ft 432 kts 230°
2026-04-11 13:37 51.84208 -63.39176 38207 ft 432 kts 230°
2026-04-11 13:37 51.80284 -63.46559 38208 ft 432 kts 230°
2026-04-11 13:38 51.76353 -63.53933 38203 ft 433 kts 230°
2026-04-11 13:38 51.72419 -63.61293 38202 ft 433 kts 229°
2026-04-11 13:39 51.68474 -63.68649 38197 ft 434 kts 229°
2026-04-11 13:39 51.64520 -63.76004 38198 ft 434 kts 229°
2026-04-11 13:40 51.60558 -63.83348 38196 ft 434 kts 229°
2026-04-11 13:40 51.56617 -63.90635 38188 ft 435 kts 229°
2026-04-11 13:41 51.52644 -63.97961 38187 ft 435 kts 229°
2026-04-11 13:41 51.48657 -64.05289 38185 ft 435 kts 229°
2026-04-11 13:42 51.44672 -64.12594 38184 ft 435 kts 229°
2026-04-11 13:42 51.40677 -64.19895 38184 ft 435 kts 229°
2026-04-11 13:43 51.36706 -64.27133 38178 ft 436 kts 229°
2026-04-11 13:43 51.32698 -64.34416 38170 ft 436 kts 229°
2026-04-11 13:44 51.28680 -64.41697 38162 ft 436 kts 229°
2026-04-11 13:44 51.24654 -64.48971 38166 ft 437 kts 229°
2026-04-11 13:45 51.20619 -64.56241 38160 ft 437 kts 229°
2026-04-11 13:45 51.16583 -64.63490 38157 ft 437 kts 229°
2026-04-11 13:46 51.12541 -64.70732 38150 ft 438 kts 229°
2026-04-11 13:46 51.08492 -64.77963 38150 ft 438 kts 228°
2026-04-11 13:47 51.04460 -64.85146 38147 ft 438 kts 228°
2026-04-11 13:47 51.00389 -64.92376 38153 ft 438 kts 228°
2026-04-11 13:48 50.96316 -64.99589 38142 ft 439 kts 228°
2026-04-11 13:48 50.92252 -65.06766 38142 ft 439 kts 228°
2026-04-11 13:49 50.88163 -65.13968 38137 ft 440 kts 228°
2026-04-11 13:49 50.84063 -65.21166 38133 ft 440 kts 228°
2026-04-11 13:50 50.80657 -65.27133 38127 ft 440 kts 228°
2026-04-11 13:50 50.76551 -65.34305 38130 ft 440 kts 228°
2026-04-11 13:51 50.72436 -65.41474 38125 ft 441 kts 228°
2026-04-11 13:51 50.68311 -65.48639 38121 ft 441 kts 228°
2026-04-11 13:52 50.64172 -65.55809 38121 ft 442 kts 228°
2026-04-11 13:52 50.60030 -65.62963 38126 ft 442 kts 228°
2026-04-11 13:53 50.55874 -65.70122 38117 ft 443 kts 227°
2026-04-11 13:53 50.51739 -65.77223 38113 ft 443 kts 227°
2026-04-11 13:54 50.47570 -65.84365 38111 ft 443 kts 227°
2026-04-11 13:54 50.43395 -65.91496 38106 ft 443 kts 227°
2026-04-11 13:55 50.39212 -65.98620 38102 ft 444 kts 227°
2026-04-11 13:55 50.35028 -66.05727 38095 ft 444 kts 227°
2026-04-11 13:56 50.30827 -66.12842 38094 ft 445 kts 227°
2026-04-11 13:56 50.26622 -66.19944 38094 ft 445 kts 227°
2026-04-11 13:57 50.22436 -66.26995 38093 ft 445 kts 227°
2026-04-11 13:57 50.18214 -66.34085 38090 ft 445 kts 227°
2026-04-11 13:58 50.13986 -66.41167 38094 ft 446 kts 227°
2026-04-11 13:58 50.09752 -66.48238 38097 ft 446 kts 227°
2026-04-11 13:59 50.05513 -66.55299 38107 ft 446 kts 227°
2026-04-11 13:59 50.01262 -66.62360 38097 ft 447 kts 227°
2026-04-11 14:00 49.97003 -66.69415 38104 ft 447 kts 227°
2026-04-11 14:00 49.90630 -66.79933 38082 ft 448 kts 227°
2026-04-11 14:01 49.86356 -66.86965 38098 ft 448 kts 227°
2026-04-11 14:01 49.82066 -66.94002 38091 ft 449 kts 227°
2026-04-11 14:02 49.77766 -67.01036 38083 ft 449 kts 227°
2026-04-11 14:02 49.73468 -67.08047 38074 ft 450 kts 227°
2026-04-11 14:03 49.69179 -67.15025 38091 ft 450 kts 227°
2026-04-11 14:03 49.64859 -67.22034 38085 ft 451 kts 227°
2026-04-11 14:04 49.60528 -67.29042 38080 ft 451 kts 227°
2026-04-11 14:04 49.56189 -67.36043 38083 ft 452 kts 227°
2026-04-11 14:05 49.51841 -67.43039 38080 ft 452 kts 227°
2026-04-11 14:05 49.47487 -67.50025 38087 ft 453 kts 227°
2026-04-11 14:06 49.43120 -67.57015 38075 ft 453 kts 227°
2026-04-11 14:06 49.38742 -67.64002 38082 ft 453 kts 227°
2026-04-11 14:07 49.34384 -67.70938 38086 ft 454 kts 226°
2026-04-11 14:07 49.29987 -67.77915 38078 ft 454 kts 226°
2026-04-11 14:08 49.25590 -67.84876 38083 ft 454 kts 226°
2026-04-11 14:08 49.21189 -67.91824 38082 ft 454 kts 226°
2026-04-11 14:09 49.16807 -67.98721 38086 ft 455 kts 226°
2026-04-11 14:09 49.12364 -68.05696 38085 ft 455 kts 226°
2026-04-11 14:10 49.07962 -68.12589 38078 ft 456 kts 226°
2026-04-11 14:10 49.03516 -68.19531 38094 ft 456 kts 226°
2026-04-11 14:11 48.99074 -68.26448 38089 ft 457 kts 226°
2026-04-11 14:11 48.94645 -68.33326 38092 ft 457 kts 227°
2026-04-11 14:12 48.90188 -68.40230 38095 ft 458 kts 227°
2026-04-11 14:12 48.85719 -68.47132 38090 ft 458 kts 227°
2026-04-11 14:13 48.81238 -68.54036 38097 ft 459 kts 227°
2026-04-11 14:13 48.76759 -68.60915 38099 ft 458 kts 227°
2026-04-11 14:14 48.72297 -68.67753 38091 ft 459 kts 227°
2026-04-11 14:14 48.67795 -68.74632 38089 ft 459 kts 227°
2026-04-11 14:15 48.63298 -68.81484 38094 ft 459 kts 227°
2026-04-11 14:15 48.58811 -68.88305 38092 ft 460 kts 227°
2026-04-11 14:16 48.54296 -68.95149 38096 ft 460 kts 227°
2026-04-11 14:16 48.49766 -69.01995 38098 ft 460 kts 227°
2026-04-11 14:17 48.45232 -69.08832 38097 ft 461 kts 227°
2026-04-11 14:17 48.40693 -69.15657 38100 ft 461 kts 227°
2026-04-11 14:18 48.36146 -69.22475 38106 ft 462 kts 227°
2026-04-11 14:18 48.31589 -69.29290 38104 ft 462 kts 227°
2026-04-11 14:19 48.27049 -69.36063 38105 ft 463 kts 227°
2026-04-11 14:19 48.22473 -69.42871 38106 ft 463 kts 227°
2026-04-11 14:20 48.17891 -69.49669 38109 ft 463 kts 227°
2026-04-11 14:20 48.13305 -69.56454 38113 ft 463 kts 227°
2026-04-11 14:21 48.08716 -69.63228 38112 ft 463 kts 227°
2026-04-11 14:21 48.04122 -69.69990 38123 ft 464 kts 227°
2026-04-11 14:22 47.99519 -69.76748 38123 ft 464 kts 227°
2026-04-11 14:22 47.94942 -69.83449 38137 ft 464 kts 227°
2026-04-11 14:23 47.90317 -69.90202 38131 ft 464 kts 227°
2026-04-11 14:23 47.85703 -69.96922 38156 ft 464 kts 227°
2026-04-11 14:24 47.81075 -70.03646 38154 ft 464 kts 227°
2026-04-11 14:24 47.76448 -70.10349 38152 ft 464 kts 227°
2026-04-11 14:25 47.71816 -70.17043 38153 ft 464 kts 227°
2026-04-11 14:25 47.67205 -70.23688 38147 ft 465 kts 227°
2026-04-11 14:26 47.62564 -70.30360 38144 ft 465 kts 227°
2026-04-11 14:26 47.57940 -70.36990 38135 ft 465 kts 227°
2026-04-11 14:27 47.53287 -70.43644 38136 ft 465 kts 227°
2026-04-11 14:27 47.48669 -70.50330 38140 ft 464 kts 229°
2026-04-11 14:28 47.44103 -70.57098 38133 ft 465 kts 228°
2026-04-11 14:28 47.39580 -70.63827 38119 ft 464 kts 229°
2026-04-11 14:29 47.35021 -70.70582 38118 ft 465 kts 228°
2026-04-11 14:29 47.30452 -70.77333 38126 ft 465 kts 228°
2026-04-11 14:30 47.25901 -70.84044 38134 ft 465 kts 228°
2026-04-11 14:30 47.21317 -70.90781 38415 ft 466 kts 228°
2026-04-11 14:31 47.19032 -70.94135 38862 ft 464 kts 229°
2026-04-11 14:31 47.16747 -70.97483 39211 ft 462 kts 228°
2026-04-11 14:31 47.14467 -71.00819 39554 ft 461 kts 229°
2026-04-11 14:31 47.12200 -71.04134 39878 ft 460 kts 228°
2026-04-11 14:32 47.09922 -71.07460 40134 ft 462 kts 228°
2026-04-11 14:32 47.07628 -71.10791 40162 ft 465 kts 228°
2026-04-11 14:32 47.03068 -71.17299 40180 ft 459 kts 228°
2026-04-11 14:33 46.98504 -71.23859 40180 ft 460 kts 228°
2026-04-11 14:33 46.93920 -71.30399 40191 ft 460 kts 228°
2026-04-11 14:34 46.89337 -71.36934 40196 ft 460 kts 228°
2026-04-11 14:34 46.84739 -71.43469 40194 ft 460 kts 228°
2026-04-11 14:35 46.80154 -71.49972 40195 ft 459 kts 228°
2026-04-11 14:35 46.75565 -71.56462 40195 ft 459 kts 228°
2026-04-11 14:36 46.70997 -71.62909 40201 ft 459 kts 228°
2026-04-11 14:36 46.66403 -71.69374 40204 ft 459 kts 228°
2026-04-11 14:37 46.62588 -71.74732 40207 ft 458 kts 228°
2026-04-11 14:37 46.57992 -71.81170 40219 ft 458 kts 228°
2026-04-11 14:38 46.53393 -71.87599 40216 ft 458 kts 228°
2026-04-11 14:38 46.48789 -71.94018 40220 ft 458 kts 228°
2026-04-11 14:39 46.44190 -72.00414 40222 ft 458 kts 228°
2026-04-11 14:39 46.39586 -72.06800 40241 ft 458 kts 228°
2026-04-11 14:40 46.34980 -72.13175 40240 ft 458 kts 228°
2026-04-11 14:40 46.30397 -72.19502 40240 ft 458 kts 228°
2026-04-11 14:41 46.25776 -72.25865 40239 ft 458 kts 228°
2026-04-11 14:41 46.21157 -72.32211 40242 ft 458 kts 228°
2026-04-11 14:42 46.16532 -72.38549 40244 ft 458 kts 228°
2026-04-11 14:43 46.09622 -72.47990 40250 ft 458 kts 228°
2026-04-11 14:43 46.07193 -72.51300 40256 ft 458 kts 228°
2026-04-11 14:44 46.02562 -72.57600 40254 ft 458 kts 228°
2026-04-11 14:44 45.93718 -72.69591 40262 ft 458 kts 228°
2026-04-11 14:45 45.84431 -72.82121 40272 ft 458 kts 228°
2026-04-11 14:45 45.75162 -72.94567 40274 ft 459 kts 228°
2026-04-11 14:46 45.65813 -73.07061 40293 ft 459 kts 228°
2026-04-11 14:46 45.56468 -73.19489 40287 ft 459 kts 228°
2026-04-11 14:47 45.47112 -73.31874 40281 ft 458 kts 228°
2026-04-11 14:47 45.37762 -73.44191 40282 ft 458 kts 228°
2026-04-11 14:48 45.28398 -73.56469 40296 ft 457 kts 228°
2026-04-11 14:48 45.19047 -73.68673 40292 ft 457 kts 228°
2026-04-11 14:49 45.09701 -73.80813 40299 ft 456 kts 228°
2026-04-11 14:49 44.95656 -73.98951 40300 ft 455 kts 229°
2026-04-11 14:50 44.86292 -74.10974 40314 ft 454 kts 228°
2026-04-11 14:50 44.76931 -74.22940 40327 ft 455 kts 229°
2026-04-11 14:51 44.67591 -74.34823 40316 ft 455 kts 229°
2026-04-11 14:51 44.58185 -74.46736 40316 ft 455 kts 229°
2026-04-11 14:52 44.48773 -74.58602 40324 ft 456 kts 229°
2026-04-11 14:52 44.39338 -74.70444 40351 ft 456 kts 229°
2026-04-11 14:53 44.29877 -74.82265 40339 ft 456 kts 229°
2026-04-11 14:53 44.20389 -74.94066 40355 ft 457 kts 229°
2026-04-11 14:54 44.10898 -75.05818 40355 ft 456 kts 228°
2026-04-11 14:54 44.01399 -75.17527 40354 ft 456 kts 228°
2026-04-11 14:55 43.91872 -75.29219 40351 ft 457 kts 228°
2026-04-11 14:55 43.82408 -75.40782 40349 ft 457 kts 228°
2026-04-11 14:56 43.74783 -75.50061 40345 ft 457 kts 228°
2026-04-11 14:56 43.65216 -75.61657 40357 ft 457 kts 228°
2026-04-11 14:57 43.55629 -75.73226 40372 ft 457 kts 228°
2026-04-11 14:57 43.46044 -75.84742 40378 ft 457 kts 228°
2026-04-11 14:58 43.36438 -75.96233 40396 ft 457 kts 228°
2026-04-11 14:58 43.26876 -76.07621 40385 ft 458 kts 228°
2026-04-11 14:59 43.17245 -76.19044 40396 ft 458 kts 227°
2026-04-11 14:59 43.06278 -76.28528 40403 ft 467 kts 219°
2026-04-11 15:00 42.95159 -76.37737 40400 ft 467 kts 219°
2026-04-11 15:00 42.84011 -76.46914 40407 ft 467 kts 219°
2026-04-11 15:01 42.72852 -76.56054 40398 ft 467 kts 218°
2026-04-11 15:01 42.61704 -76.65146 40396 ft 467 kts 218°
2026-04-11 15:02 42.50557 -76.74198 40396 ft 467 kts 218°
2026-04-11 15:02 42.39390 -76.83228 40397 ft 468 kts 218°
2026-04-11 15:03 42.28284 -76.92172 40405 ft 468 kts 218°
2026-04-11 15:03 42.17083 -77.01153 40400 ft 468 kts 218°
2026-04-11 15:04 42.05895 -77.10087 40399 ft 467 kts 218°
2026-04-11 15:04 41.94678 -77.19006 40393 ft 468 kts 218°
2026-04-11 15:05 41.83462 -77.27888 40390 ft 468 kts 218°
2026-04-11 15:05 41.72233 -77.36745 40394 ft 468 kts 218°
2026-04-11 15:06 41.61023 -77.45548 40393 ft 467 kts 218°
2026-04-11 15:06 41.49871 -77.54272 40380 ft 467 kts 218°
2026-04-11 15:07 41.38633 -77.63027 40376 ft 467 kts 218°
2026-04-11 15:07 41.27390 -77.71751 40376 ft 468 kts 217°
2026-04-11 15:08 41.16137 -77.80448 40383 ft 468 kts 217°
2026-04-11 15:08 41.04867 -77.89123 40382 ft 469 kts 217°
2026-04-11 15:09 40.93579 -77.97806 40387 ft 466 kts 221°
2026-04-11 15:09 40.88863 -78.03448 40391 ft 453 kts 235°
2026-04-11 15:09 40.84768 -78.09774 40401 ft 452 kts 236°
2026-04-11 15:10 40.76517 -78.22323 40388 ft 453 kts 235°
2026-04-11 15:10 40.68294 -78.34793 40373 ft 453 kts 235°
2026-04-11 15:11 40.60002 -78.47321 40382 ft 454 kts 235°
2026-04-11 15:11 40.51694 -78.59819 40387 ft 454 kts 235°
2026-04-11 15:12 40.43363 -78.72302 40390 ft 454 kts 235°
2026-04-11 15:12 40.35019 -78.84752 40388 ft 455 kts 234°
2026-04-11 15:13 40.26634 -78.97213 40390 ft 455 kts 234°
2026-04-11 15:13 40.18237 -79.09641 40404 ft 455 kts 234°
2026-04-11 15:14 40.09885 -79.22108 40440 ft 455 kts 235°
2026-04-11 15:14 40.01578 -79.34587 40429 ft 456 kts 235°
2026-04-11 15:15 39.93240 -79.47069 40445 ft 456 kts 234°
2026-04-11 15:15 39.84894 -79.59511 40445 ft 457 kts 234°
2026-04-11 15:16 39.76567 -79.71874 40443 ft 457 kts 234°
2026-04-11 15:16 39.68168 -79.84294 40448 ft 457 kts 234°
2026-04-11 15:17 39.59764 -79.96673 40450 ft 458 kts 234°
2026-04-11 15:17 39.51324 -80.09055 40442 ft 458 kts 234°
2026-04-11 15:18 39.42885 -80.21397 40431 ft 458 kts 234°
2026-04-11 15:18 39.34424 -80.33721 40441 ft 458 kts 234°
2026-04-11 15:19 39.25951 -80.46014 40417 ft 458 kts 233°
2026-04-11 15:19 39.17460 -80.58285 40402 ft 458 kts 233°
2026-04-11 15:20 39.08958 -80.70523 40386 ft 458 kts 233°
2026-04-11 15:20 39.00438 -80.82744 40387 ft 458 kts 234°
2026-04-11 15:21 38.92021 -80.95037 40383 ft 458 kts 234°
2026-04-11 15:21 38.83632 -81.07225 40383 ft 459 kts 234°
2026-04-11 15:22 38.75167 -81.19472 40383 ft 459 kts 234°
2026-04-11 15:22 38.66677 -81.31706 40385 ft 460 kts 234°
2026-04-11 15:23 38.58167 -81.43923 40402 ft 460 kts 234°
2026-04-11 15:23 38.49625 -81.56137 40414 ft 461 kts 234°
2026-04-11 15:24 38.42518 -81.66266 40419 ft 461 kts 234°
2026-04-11 15:24 38.33109 -81.77452 40450 ft 477 kts 214°
2026-04-11 15:25 38.26002 -81.80947 40417 ft 485 kts 205°
2026-04-11 15:25 38.19647 -81.83700 40399 ft 484 kts 205°
2026-04-11 15:26 38.13274 -81.86508 40383 ft 485 kts 205°
2026-04-11 15:26 38.06894 -81.89280 40386 ft 485 kts 205°
2026-04-11 15:27 38.00489 -81.92078 40372 ft 485 kts 205°
2026-04-11 15:27 37.94143 -81.94835 40368 ft 486 kts 205°
2026-04-11 15:28 37.87741 -81.97616 40363 ft 486 kts 205°
2026-04-11 15:28 37.81329 -82.00394 40359 ft 486 kts 205°
2026-04-11 15:29 37.74923 -82.03164 40354 ft 486 kts 205°
2026-04-11 15:29 37.68512 -82.05933 40348 ft 487 kts 205°
2026-04-11 15:30 37.62145 -82.08676 40346 ft 487 kts 205°
2026-04-11 15:30 37.55720 -82.11440 40347 ft 487 kts 205°
2026-04-11 15:31 37.49288 -82.14202 40348 ft 488 kts 205°
2026-04-11 15:31 37.42854 -82.16959 40340 ft 488 kts 205°
2026-04-11 15:32 37.36416 -82.19715 40338 ft 489 kts 205°
2026-04-11 15:32 37.29982 -82.22462 40332 ft 489 kts 205°
2026-04-11 15:33 37.22657 -82.25584 40341 ft 490 kts 205°
2026-04-11 15:33 37.09722 -82.31082 40369 ft 491 kts 205°
2026-04-11 15:34 36.97294 -82.37817 40394 ft 487 kts 211°
2026-04-11 15:34 36.84952 -82.44782 40386 ft 487 kts 211°
2026-04-11 15:35 36.72585 -82.51739 40359 ft 488 kts 211°
2026-04-11 15:35 36.60224 -82.58670 40373 ft 487 kts 211°
2026-04-11 15:36 36.47823 -82.65598 40372 ft 488 kts 211°
2026-04-11 15:36 36.35398 -82.72517 40366 ft 489 kts 211°
2026-04-11 15:37 36.23062 -82.79415 40381 ft 488 kts 212°
2026-04-11 15:37 36.10784 -82.86650 40379 ft 489 kts 212°
2026-04-11 15:38 36.04178 -82.90535 40374 ft 489 kts 212°
2026-04-11 15:38 35.98017 -82.94140 40361 ft 489 kts 212°
2026-04-11 15:39 35.91866 -82.97739 40362 ft 489 kts 212°
2026-04-11 15:39 35.85716 -83.01329 40348 ft 489 kts 212°
2026-04-11 15:40 35.79557 -83.04920 40352 ft 489 kts 212°
2026-04-11 15:40 35.73438 -83.08480 40361 ft 489 kts 212°
2026-04-11 15:41 35.67285 -83.12060 40357 ft 489 kts 212°
2026-04-11 15:41 35.61129 -83.15631 40356 ft 489 kts 212°
2026-04-11 15:42 35.54963 -83.19206 40373 ft 489 kts 212°
2026-04-11 15:43 35.45721 -83.24551 39823 ft 495 kts 212°
2026-04-11 15:43 35.42623 -83.26341 39188 ft 497 kts 211°
2026-04-11 15:43 35.39460 -83.28129 38569 ft 490 kts 211°
2026-04-11 15:43 35.36453 -83.29802 38575 ft 471 kts 211°
2026-04-11 15:44 35.33515 -83.31461 38571 ft 461 kts 212°
2026-04-11 15:44 35.27701 -83.34778 38541 ft 467 kts 211°
2026-04-11 15:44 35.24701 -83.36466 38172 ft 484 kts 211°
2026-04-11 15:45 35.21599 -83.38210 37532 ft 495 kts 211°
2026-04-11 15:45 35.18478 -83.39959 36879 ft 490 kts 210°
2026-04-11 15:45 35.15410 -83.41681 36335 ft 481 kts 211°
2026-04-11 15:45 35.12384 -83.43387 35693 ft 479 kts 210°
2026-04-11 15:46 35.09315 -83.45123 35018 ft 494 kts 210°
2026-04-11 15:46 35.06158 -83.46898 34280 ft 502 kts 210°
2026-04-11 15:46 35.02986 -83.48704 33496 ft 500 kts 210°
2026-04-11 15:46 34.99851 -83.50535 32714 ft 498 kts 210°
2026-04-11 15:47 34.96739 -83.52343 31913 ft 497 kts 210°
2026-04-11 15:47 34.93608 -83.54133 31079 ft 496 kts 209°
2026-04-11 15:47 34.90488 -83.55916 30190 ft 494 kts 209°
2026-04-11 15:47 34.87389 -83.57699 29291 ft 491 kts 209°
2026-04-11 15:48 34.84304 -83.59475 28369 ft 490 kts 209°
2026-04-11 15:48 34.81205 -83.61253 27385 ft 495 kts 209°
2026-04-11 15:48 34.78088 -83.63037 26364 ft 497 kts 208°
2026-04-11 15:48 34.74952 -83.64828 25269 ft 493 kts 208°
2026-04-11 15:49 34.71908 -83.66564 24162 ft 469 kts 208°
2026-04-11 15:49 34.69066 -83.68187 23022 ft 445 kts 208°
2026-04-11 15:49 34.66325 -83.69756 21934 ft 426 kts 208°
2026-04-11 15:49 34.63725 -83.71241 21446 ft 397 kts 208°
2026-04-11 15:50 34.61307 -83.72617 21055 ft 379 kts 208°
2026-04-11 15:50 34.58929 -83.73984 20675 ft 375 kts 208°
2026-04-11 15:50 34.57604 -83.74745 20476 ft 372 kts 208°
2026-04-11 15:50 34.55276 -83.76076 20104 ft 369 kts 207°
2026-04-11 15:51 34.54145 -83.76720 19927 ft 368 kts 207°
2026-04-11 15:51 34.51819 -83.78046 19572 ft 366 kts 207°
2026-04-11 15:51 34.49521 -83.79357 19223 ft 365 kts 207°
2026-04-11 15:51 34.47222 -83.80669 18881 ft 364 kts 207°
2026-04-11 15:52 34.44931 -83.81974 18529 ft 363 kts 207°
2026-04-11 15:52 34.42680 -83.83254 18127 ft 361 kts 206°
2026-04-11 15:52 34.40415 -83.84543 17691 ft 359 kts 206°
2026-04-11 15:52 34.38166 -83.85822 17208 ft 356 kts 206°
2026-04-11 15:53 34.35934 -83.87090 16729 ft 351 kts 206°
2026-04-11 15:53 34.33761 -83.88324 16241 ft 339 kts 206°
2026-04-11 15:53 34.31703 -83.89646 15769 ft 333 kts 211°
2026-04-11 15:53 34.29657 -83.90936 15303 ft 331 kts 207°
2026-04-11 15:54 34.27591 -83.92161 14849 ft 329 kts 208°
2026-04-11 15:54 34.25570 -83.93432 14400 ft 326 kts 209°
2026-04-11 15:54 34.23579 -83.94722 13926 ft 324 kts 209°
2026-04-11 15:54 34.21594 -83.95985 13424 ft 321 kts 208°
2026-04-11 15:55 34.19629 -83.97218 13035 ft 314 kts 208°
2026-04-11 15:55 34.17684 -83.98443 13003 ft 321 kts 208°
2026-04-11 15:55 34.15720 -83.99687 12837 ft 319 kts 208°
2026-04-11 15:55 34.13768 -84.00921 12387 ft 312 kts 208°
2026-04-11 15:56 34.11888 -84.02105 11917 ft 298 kts 208°
2026-04-11 15:56 34.10066 -84.03254 11457 ft 293 kts 208°
2026-04-11 15:56 34.08277 -84.04382 11015 ft 289 kts 208°
2026-04-11 15:56 34.06509 -84.05497 10568 ft 285 kts 208°
2026-04-11 15:57 34.04753 -84.06602 10137 ft 283 kts 207°
2026-04-11 15:57 34.03011 -84.07697 9661 ft 282 kts 207°
2026-04-11 15:57 34.01294 -84.08772 9203 ft 281 kts 206°
2026-04-11 15:57 33.99387 -84.09331 8987 ft 282 kts 181°
2026-04-11 15:58 33.97472 -84.09076 8994 ft 272 kts 171°
2026-04-11 15:58 33.95722 -84.08706 8982 ft 253 kts 170°
2026-04-11 15:58 33.93999 -84.08323 8981 ft 251 kts 170°
2026-04-11 15:58 33.92296 -84.07959 8974 ft 249 kts 171°
2026-04-11 15:59 33.90612 -84.07488 8983 ft 249 kts 167°
2026-04-11 15:59 33.88919 -84.07093 8983 ft 247 kts 171°
2026-04-11 15:59 33.87210 -84.06721 8981 ft 249 kts 169°
2026-04-11 15:59 33.85519 -84.06300 8894 ft 252 kts 168°
2026-04-11 16:00 33.83806 -84.05859 8444 ft 248 kts 168°
2026-04-11 16:00 33.82146 -84.05440 8061 ft 240 kts 168°
2026-04-11 16:00 33.80537 -84.05040 7706 ft 233 kts 168°
2026-04-11 16:00 33.78970 -84.04650 7362 ft 228 kts 168°
2026-04-11 16:01 33.77422 -84.04263 7025 ft 227 kts 167°
2026-04-11 16:01 33.75883 -84.03879 6670 ft 226 kts 167°
2026-04-11 16:01 33.74352 -84.03494 6327 ft 224 kts 167°
2026-04-11 16:01 33.72849 -84.03120 6095 ft 217 kts 167°
2026-04-11 16:02 33.71388 -84.02754 5852 ft 211 kts 166°
2026-04-11 16:02 33.69983 -84.02403 5611 ft 206 kts 167°
2026-04-11 16:02 33.68575 -84.02056 5378 ft 205 kts 167°
2026-04-11 16:02 33.67204 -84.01743 5138 ft 201 kts 173°
2026-04-11 16:03 33.65879 -84.02157 4926 ft 198 kts 216°
2026-04-11 16:03 33.65160 -84.03517 4944 ft 195 kts 255°
2026-04-11 16:03 33.64971 -84.05162 4963 ft 196 kts 269°
2026-04-11 16:03 33.64970 -84.06809 4970 ft 197 kts 271°
2026-04-11 16:04 33.64966 -84.08457 4995 ft 198 kts 271°
2026-04-11 16:04 33.64968 -84.10109 4952 ft 199 kts 271°
2026-04-11 16:04 33.64966 -84.11741 4964 ft 198 kts 271°
2026-04-11 16:04 33.64964 -84.13386 5003 ft 199 kts 270°
2026-04-11 16:05 33.64960 -84.15024 4971 ft 197 kts 271°
2026-04-11 16:05 33.64963 -84.16701 4900 ft 199 kts 271°
2026-04-11 16:05 33.64961 -84.18348 4635 ft 197 kts 271°
2026-04-11 16:06 33.64959 -84.21633 4139 ft 196 kts 271°
2026-04-11 16:06 33.64957 -84.23259 3840 ft 196 kts 271°
2026-04-11 16:06 33.64953 -84.24852 3613 ft 193 kts 272°
2026-04-11 16:06 33.64951 -84.26433 3391 ft 187 kts 272°
2026-04-11 16:07 33.64946 -84.27936 3104 ft 173 kts 272°
2026-04-11 16:07 33.64945 -84.29386 2847 ft 172 kts 271°
2026-04-11 16:07 33.64949 -84.30798 2636 ft 173 kts 272°
2026-04-11 16:07 33.64946 -84.32195 2417 ft 167 kts 271°
2026-04-11 16:08 33.64949 -84.33087 2291 ft 157 kts 272°
2026-04-11 16:08 33.64967 -84.34790 2075 ft 151 kts 271°
2026-04-11 16:08 33.64970 -84.35646 1877 ft 152 kts 268°
2026-04-11 16:08 33.64957 -84.37307 1681 ft 148 kts 269°
2026-04-11 16:09 33.64963 -84.38560 1461 ft 149 kts 266°
2026-04-11 16:09 33.64958 -84.39800 1267 ft 152 kts 270°
2026-04-11 16:09 33.64958 -84.40617 1135 ft 147 kts 270°
2026-04-11 16:09 33.64954 -84.41825 1041 ft 129 kts 267°
2026-04-11 16:10 33.64953 -84.42647 1042 ft 71 kts 270°
2026-04-11 16:10 33.64946 -84.43081 1041 ft 42 kts 260°
2026-04-11 16:10 33.64855 -84.43357 1041 ft 36 kts 249°
2026-04-11 16:10 33.64845 -84.43567 1042 ft 13 kts 270°
2026-04-11 16:11 33.64845 -84.43677 1042 ft 14 kts 271°
2026-04-11 16:11 33.64847 -84.43793 1041 ft 15 kts 271°
2026-04-11 16:11 33.64851 -84.43921 1041 ft 16 kts 272°
2026-04-11 16:11 33.64822 -84.44031 1041 ft 17 kts 240°
2026-04-11 16:12 33.64785 -84.44176 1041 ft 18 kts 269°
2026-04-11 16:12 33.64744 -84.44307 1041 ft 17 kts 220°
2026-04-11 16:12 33.64633 -84.44323 1041 ft 17 kts 158°
2026-04-11 16:12 33.64577 -84.44216 1041 ft 16 kts 93°
2026-04-11 16:13 33.64528 -84.44123 1041 ft 12 kts 168°
2026-04-11 16:13 33.64450 -84.44091 1041 ft 12 kts 153°
2026-04-11 16:13 33.64368 -84.44054 1041 ft 13 kts 170°
2026-04-11 16:13 33.64283 -84.44052 1041 ft 13 kts 180°
2026-04-11 16:14 33.64258 -84.44042 1041 ft 2 kts 131°
2026-04-11 16:14 33.64252 -84.44005 1041 ft 2 kts 92°
2026-04-11 16:14 33.64251 -84.43980 1041 ft 4 kts 89°
2026-04-11 16:14 33.64251 -84.43974 1041 ft 0 kts 90°
2026-04-11 16:15 33.64251 -84.43984 1042 ft 0 kts 90°
2026-04-11 16:15 33.64251 -84.43980 1041 ft 0 kts 90°